FENGYUN 1C DEB

Satellite information

Favourite Embed

Satellite Type and Status

DEBRISIN ORBIT

Key statistics

Satellite FENGYUN 1C DEB at a glance.

Uptime

9714

Days in orbit

Revolutions

≈ 14.1

Per day

Orbit

SSO

Sun Synchronous Orbit

Inclination

99.1

Latest

Satellite identification and parameters

Extended collection of information and parameters for FENGYUN 1C DEB.

Object identification

Identified? True

Debris? True

Object name: FENGYUN 1C DEB

International designator: 1999-025ERL

Object number (NORAD): 38163

Object ID (CCSDS): 38163

Country: PEOPLES REPUBLIC OF CHINA (PRC)

Current information (Y/N): Y

RCS size: SMALL

Orbital parameters

Period: 102.425 minutes

Inclination: 99.1292 deg

SMA: 7251.571 km

Apoapsis: 928.362 km

Periapsis: 818.51 km

RAAN: 19.3646 deg

Eccentricy: 0.0075743

Argument of periapsis: 253.1337 deg

Mean anomaly: 106.1514 deg

Mean motion: 14.05900576 rev/day

Mean motion (dot): 0.00001656 rev/day2

B* drag term: 0.0010133 1/REarth

Two-line elements (TLE)

Creation date: Dec. 9, 2025, 8:06 a.m.

Reference frame: TEME

Reference center: EARTH

Epoch: Dec. 8, 2025, 8:43 p.m. UTC

TLE line 0: 0 FENGYUN 1C DEB

TLE line 1: 1 38163U 99025ERL 25342.86367632 .00001656 00000-0 10133-2 0 9991

TLE line 2: 2 38163 99.1292 19.3646 0075743 253.1337 106.1514 14.05900576244874

Live tracking on map

Real-time ground track for satellite FENGYUN 1C DEB.

In-orbit conjunctions

A list of the most updated potential collisions computed for object FENGYUN 1C DEB.

Target Orbit TCA Probability of collision Miss distance Type
SL-14 DEB LEO 2024-09-26 00:16:51 0.0001239368 960.0 (m) DEBRIS

Associated space launch

Chinese polar orbiting meteorological satellite

FENGYUN 1C DEB was lifted into orbit during the mission ‘Long March 4B | Feng Yun 1C’, on board a Long March 4B space rocket.

The launch took place on May 10, 1999, 1:33 a.m. from Launch Complex 7.

For more information about the launch, click the button.

Launch to space Long March 4B | Feng Yun 1C
Long March 4B | Feng Yun 1C

Agency: N/A

Status: Launch Successful

Launch date: May 10, 1999, 1:33 a.m. UTC

Rocket: Long March 4B

Launch pad: Launch Complex 7

Location: Taiyuan Satellite Launch Center, People's Republic of China

...

Latest news about this satellite

There are no fresh news available about this satellite. Check back as we update our databases every day.


Newsletter sign-up

Weekly statistics, charts and insights to help you stay on top of the space industry.